[[{"header":{"parameterUnit":"m.s-1","parameterCategory":1,"la1":30.2991,"la2":30.254,"lo1":-89.0895,"lo2":-89.0444,"dy":0.0017,"dx":0.0017,"nx":28,"ny":28,"refTime":"2024-04-13T09:00:00:Z","depth":0,"parameterNumber":2,"parameterNumberName":"U-component_of_WINDS"},"data":[0,0,0,0,0,0,0,0,0,0,0,0,0,0,0,0,0,0,0,0,0,0,0,0,0,0,0,0,0,0,0,0,0,0,0,0,0,0,0,0,0,0,0,0,0,0,0,0,0,0,0,0,0,0,0,0,0,0,1.0158,1.0158,0,1.0182,1.0182,1.0182,1.0164,1.0163,1.0162,1.0162,1.0185,1.0186,1.0188,0,0,0,0,0,0,0,0,0,0,0,0,0,1.0095,1.0096,1.0158,1.0158,1.0158,1.0182,1.0182,1.0183,1.0164,1.0163,1.0162,1.0161,1.0185,1.0186,1.0188,0,0,0,0,0,0,0,0,0,0,0,0,0,1.0121,1.0097,1.0157,1.0152,1.0152,1.0182,1.0182,1.0183,1.0164,1.0163,1.0162,1.0161,1.0184,1.0186,1.0188,1.0225,0,0,1.0194,1.0195,0,0,0,0,0,0,0,0,1.0119,1.0123,1.0152,1.0152,1.0152,1.0169,1.0169,1.0197,1.0165,1.0159,1.0162,1.016,1.0181,1.0183,1.019,1.0226,1.0227,1.0195,1.0196,1.0197,1.0197,0,0,0,0,0,0,0,1.0118,1.0122,1.0167,1.0153,1.0153,1.0148,1.015,1.0174,1.0176,1.016,1.0159,1.0162,1.018,1.0188,1.019,1.0227,1.0194,1.0196,1.0198,1.0198,1.0296,1.0297,0,0,0,0,0,0,1.0117,1.0121,1.0166,1.0168,1.0133,1.015,1.0153,1.0165,1.0176,1.0177,1.0163,1.0161,1.0185,1.0188,1.0191,1.0235,1.0197,1.0199,1.02,1.0294,1.0296,1.0297,0,0,0,0,0,0,1.0115,1.0121,1.0165,1.0144,1.0149,1.0153,1.0166,1.0166,1.0173,1.0178,1.0179,1.017,1.0184,1.0188,1.0217,1.0236,1.02,1.0201,1.0293,1.0295,1.0297,1.0324,0,0,0,0,0,0,1.0114,1.012,1.0134,1.0144,1.0151,1.0191,1.0167,1.0167,1.0177,1.0175,1.0185,1.0186,1.0184,1.0214,1.0219,1.0238,1.0203,1.0291,1.0294,1.0296,1.0321,1.0326,1.0331,0,0,0,0,0,1.0111,1.014,1.0135,1.0141,1.0168,1.0192,1.0195,1.0192,1.0179,1.0193,1.0196,1.0186,1.0233,1.0217,1.0222,1.0242,1.029,1.0293,1.0296,1.0319,1.0325,1.0331,0,0,0,0,0,0,1.0131,1.0141,1.0136,1.0169,1.018,1.0189,1.0206,1.0199,1.0214,1.0211,1.0206,1.0209,1.0239,1.0244,1.0226,1.0279,1.0259,1.0264,1.0275,1.0281,1.0286,1.0284,1.0205,0,0,0,0,0,1.0139,1.0158,1.0166,1.0195,1.0201,1.0203,1.0213,1.021,1.0221,1.0225,1.0231,1.0241,1.0259,1.027,1.0287,1.0322,1.0324,1.0339,1.0344,1.0348,1.0351,1.0371,1.0378,1.0307,1.0307,1.0307,0,0,1.0156,1.0164,1.0176,1.0199,1.0207,1.0227,1.0206,1.0228,1.0242,1.0228,1.0256,1.0261,1.0272,1.0305,1.032,1.031,1.0371,1.0352,1.0355,1.0356,1.0375,1.0382,1.0388,1.031,1.0309,1.0309,0,0,1.0197,1.0206,1.0231,1.024,1.0253,1.0254,1.0261,1.0271,1.0274,1.0302,1.0292,1.031,1.0339,1.0349,1.0357,1.0404,1.0395,1.041,1.0435,1.0455,1.046,1.0465,1.0482,1.0488,1.0414,1.0414,1.0414,0,1.0217,1.0246,1.0244,1.0267,1.0277,1.0267,1.0292,1.0301,1.0319,1.0326,1.0315,1.0354,1.0361,1.0396,1.0408,1.0415,1.0422,1.0408,1.046,1.0465,1.0469,1.0485,1.0492,1.0415,1.0415,1.0415,1.0415,0,1.027,1.0291,1.0309,1.0328,1.034,1.0364,1.0366,1.0379,1.0376,1.0378,1.0408,1.0416,1.0435,1.0443,1.0439,1.0478,1.0472,1.046,1.044,1.0478,1.0493,1.0499,1.0418,1.0417,1.0417,1.0416,0,0,1.0322,1.0341,1.0347,1.0356,1.0371,1.0387,1.0411,1.043,1.0441,1.0455,1.0475,1.0501,1.0492,1.0502,1.0499,1.0516,1.0554,1.0503,1.0503,1.0512,1.0598,1.0606,1.0613,1.0549,1.055,1.0551,1.0597,0,1.0364,1.0406,1.0406,1.0445,1.0465,1.0456,1.0477,1.0489,1.0492,1.051,1.0514,1.0533,1.0518,1.0524,1.0541,1.0546,1.0571,1.0543,1.0567,1.0568,1.0564,1.0621,1.0629,1.0672,1.0603,1.0604,1.0605,0,1.0418,1.0434,1.0476,1.0489,1.0497,1.0516,1.0534,1.0551,1.0564,1.0566,1.0578,1.0573,1.0598,1.0578,1.0613,1.0593,1.0604,1.0608,1.0609,1.0611,1.0588,1.0624,1.0686,1.0692,1.0614,1.0613,1.0612,0,1.0452,1.0484,1.0514,1.0521,1.0538,1.0551,1.0559,1.0571,1.0583,1.0599,1.0606,1.0625,1.0635,1.0649,1.065,1.0635,1.0685,1.0665,1.0687,1.0687,1.0697,1.0696,1.0761,1.0704,1.0704,1.0704,1.0704,0,1.0499,1.0524,1.0529,1.0547,1.0576,1.0576,1.0604,1.0611,1.0622,1.0641,1.0635,1.0653,1.0653,1.0671,1.0672,1.0701,1.0705,1.0707,1.0707,1.0708,1.0707,1.0714,1.0711,1.0706,1.0705,1.0705,1.0705,0,1.0541,1.0546,1.0577,1.0591,1.0595,1.0615,1.0627,1.0644,1.0648,1.0673,1.0678,1.0685,1.0706,1.0709,1.0734,1.0734,1.0769,1.0766,1.0765,1.0764,1.0786,1.0784,1.0857,1.0866,1.0804,1.0804,1.0805,0,1.057,1.059,1.0607,1.0619,1.0628,1.0648,1.0661,1.0662,1.0675,1.0693,1.0708,1.073,1.0747,1.0782,1.0788,1.0808,1.0805,1.0829,1.0807,1.0808,1.0805,1.0804,1.0806,1.0833,1.0834,1.0834,1.0835,0,1.0622,1.0624,1.0642,1.0662,1.0678,1.0693,1.0708,1.0719,1.0722,1.0737,1.076,1.0773,1.08,1.0821,1.0841,1.0848,1.0842,1.0842,1.0848,1.0848,1.0847,1.0848,1.0776,1.084,1.0839,1.0839,1.0838,1.0838,1.0659,1.0676,1.0691,1.0712,1.0724,1.0738,1.0755,1.0762,1.0782,1.0803,1.0803,1.0828,1.0842,1.0868,1.0877,1.0897,1.0889,1.0898,1.09,1.0902,1.0904,1.0844,1.09,1.09,1.09,1.09,1.09,0,1.071,1.0719,1.0739,1.076,1.0778,1.0772,1.0788,1.0803,1.0825,1.0839,1.0857,1.0883,1.0904,1.0913,1.0934,1.0948,1.0946,1.0954,1.0952,1.0954,1.091,1.0903,1.0955,1.0955,1.0955,1.0955,1.0955,1.0955,1.0738,1.0768,1.0772,1.0808,1.0817,1.0842,1.0852,1.0865,1.0877,1.0907,1.0925,1.0931,1.0943,1.0965,1.0985,1.0987,1.0995,1.1004,1.1005,1.0963,1.0957,1.0952,1.0945,1.1005,1.1006,1.1047,1.1047,1.1048]},{"header":{"parameterUnit":"m.s-1","parameterCategory":1,"la1":30.2991,"la2":30.254,"lo1":-89.0895,"lo2":-89.0444,"dy":0.0017,"dx":0.0017,"nx":28,"ny":28,"refTime":"2024-04-13T09:00:00:Z","depth":0,"parameterNumber":3,"parameterNumberName":"V-component_of_WINDS"},"data":[0,0,0,0,0,0,0,0,0,0,0,0,0,0,0,0,0,0,0,0,0,0,0,0,0,0,0,0,0,0,0,0,0,0,0,0,0,0,0,0,0,0,0,0,0,0,0,0,0,0,0,0,0,0,0,0,0,0,-2.6987,-2.6988,0,-2.7084,-2.7086,-2.7087,-2.7078,-2.7077,-2.7075,-2.7074,-2.7171,-2.7175,-2.7178,0,0,0,0,0,0,0,0,0,0,0,0,0,-2.6793,-2.6797,-2.6987,-2.6989,-2.699,-2.7084,-2.7086,-2.7087,-2.7079,-2.7077,-2.7075,-2.7073,-2.7169,-2.7174,-2.7179,0,0,0,0,0,0,0,0,0,0,0,0,0,-2.6882,-2.6798,-2.6987,-2.6997,-2.6999,-2.7084,-2.7086,-2.7087,-2.7079,-2.7077,-2.7075,-2.7072,-2.7168,-2.7174,-2.7179,-2.726,0,0,-2.7198,-2.72,0,0,0,0,0,0,0,0,-2.6877,-2.6889,-2.6994,-2.6997,-2.6999,-2.7067,-2.7052,-2.7145,-2.7079,-2.7048,-2.7074,-2.7071,-2.7138,-2.7146,-2.7169,-2.7265,-2.7269,-2.7198,-2.7202,-2.7204,-2.7206,0,0,0,0,0,0,0,-2.6871,-2.6885,-2.7026,-2.6996,-2.6999,-2.6996,-2.7006,-2.707,-2.7104,-2.7051,-2.7051,-2.7062,-2.7139,-2.7163,-2.7171,-2.727,-2.7198,-2.7203,-2.7207,-2.7209,-2.7437,-2.7439,0,0,0,0,0,0,-2.6863,-2.688,-2.7023,-2.7029,-2.6931,-2.7001,-2.7013,-2.7047,-2.7104,-2.711,-2.7064,-2.7062,-2.7154,-2.7164,-2.7175,-2.7273,-2.7204,-2.721,-2.7213,-2.7435,-2.7438,-2.744,0,0,0,0,0,0,-2.6859,-2.6876,-2.7019,-2.6954,-2.6972,-2.7007,-2.7046,-2.705,-2.7075,-2.7114,-2.7119,-2.7083,-2.7153,-2.7166,-2.7239,-2.7276,-2.7212,-2.7218,-2.7432,-2.7435,-2.7439,-2.747,0,0,0,0,0,0,-2.6853,-2.6874,-2.6906,-2.6955,-2.6976,-2.7082,-2.7048,-2.7054,-2.7086,-2.7083,-2.7133,-2.7139,-2.7152,-2.723,-2.7245,-2.7283,-2.7222,-2.7428,-2.7433,-2.7438,-2.7465,-2.7474,-2.7481,0,0,0,0,0,-2.6846,-2.691,-2.6907,-2.6924,-2.7016,-2.7084,-2.7096,-2.7111,-2.7089,-2.712,-2.7145,-2.7138,-2.727,-2.7238,-2.7254,-2.7295,-2.7426,-2.7432,-2.7437,-2.7462,-2.7472,-2.7481,0,0,0,0,0,0,-2.6862,-2.6916,-2.6914,-2.6996,-2.7036,-2.7083,-2.7123,-2.7121,-2.7167,-2.7163,-2.7179,-2.719,-2.7263,-2.7286,-2.725,-2.7376,-2.7345,-2.7354,-2.7358,-2.7368,-2.7376,-2.7368,-2.7227,0,0,0,0,0,-2.6876,-2.6928,-2.6972,-2.7039,-2.706,-2.7088,-2.7118,-2.7126,-2.7168,-2.7184,-2.7214,-2.7254,-2.7305,-2.7338,-2.7387,-2.7469,-2.748,-2.7505,-2.7513,-2.7519,-2.7526,-2.7572,-2.7584,-2.7459,-2.7459,-2.7459,0,0,-2.6903,-2.6939,-2.6971,-2.7043,-2.7075,-2.7128,-2.7102,-2.7159,-2.7198,-2.7193,-2.7264,-2.7287,-2.7333,-2.7411,-2.7447,-2.7432,-2.7564,-2.7526,-2.7531,-2.7535,-2.7579,-2.7591,-2.7601,-2.7463,-2.7462,-2.7461,0,0,-2.698,-2.7013,-2.7073,-2.7106,-2.7155,-2.7173,-2.7188,-2.7236,-2.7252,-2.7323,-2.7321,-2.7367,-2.7454,-2.7487,-2.7515,-2.7605,-2.76,-2.7621,-2.7662,-2.7706,-2.7715,-2.7724,-2.7756,-2.7768,-2.7628,-2.7628,-2.7628,0,-2.7008,-2.7088,-2.7104,-2.7161,-2.7193,-2.7192,-2.7253,-2.7284,-2.7346,-2.7368,-2.7351,-2.7461,-2.7491,-2.7577,-2.7599,-2.7622,-2.7639,-2.7615,-2.7713,-2.7722,-2.773,-2.7761,-2.7773,-2.763,-2.763,-2.763,-2.763,0,-2.7119,-2.7175,-2.7217,-2.7279,-2.7316,-2.7374,-2.7399,-2.7434,-2.7439,-2.7459,-2.7532,-2.7569,-2.7626,-2.7647,-2.7652,-2.7733,-2.7723,-2.771,-2.7679,-2.7744,-2.7773,-2.7785,-2.7633,-2.7633,-2.7632,-2.7632,0,0,-2.7208,-2.7278,-2.7293,-2.7321,-2.7376,-2.7419,-2.7478,-2.7534,-2.7564,-2.7607,-2.7656,-2.773,-2.7719,-2.775,-2.7759,-2.7798,-2.7867,-2.778,-2.7781,-2.7795,-2.796,-2.7969,-2.7983,-2.7865,-2.7867,-2.7869,-2.7956,0,-2.729,-2.7395,-2.7412,-2.7504,-2.7555,-2.7556,-2.7607,-2.7646,-2.7666,-2.7713,-2.7735,-2.7788,-2.7768,-2.7787,-2.7826,-2.7851,-2.7901,-2.7845,-2.791,-2.7912,-2.7898,-2.7998,-2.8008,-2.8088,-2.7967,-2.7969,-2.7971,0,-2.74,-2.7447,-2.7545,-2.7593,-2.7615,-2.7661,-2.7714,-2.7758,-2.7802,-2.7815,-2.7851,-2.7856,-2.7916,-2.7883,-2.7967,-2.7929,-2.7956,-2.7973,-2.7976,-2.7982,-2.7945,-2.8006,-2.8114,-2.8126,-2.7989,-2.7987,-2.7986,0,-2.7454,-2.7542,-2.7612,-2.7636,-2.7694,-2.7726,-2.7752,-2.7794,-2.7827,-2.7873,-2.7895,-2.7947,-2.7975,-2.8016,-2.8034,-2.8008,-2.8116,-2.8085,-2.8128,-2.8127,-2.815,-2.8148,-2.8263,-2.8168,-2.8168,-2.8168,-2.8168,0,-2.7544,-2.7603,-2.7638,-2.768,-2.7747,-2.7766,-2.7831,-2.7855,-2.7893,-2.794,-2.7944,-2.7988,-2.801,-2.8057,-2.8072,-2.8138,-2.8151,-2.8163,-2.8166,-2.8162,-2.8161,-2.818,-2.8175,-2.8171,-2.817,-2.817,-2.8169,0,-2.7616,-2.7641,-2.7717,-2.7767,-2.778,-2.7827,-2.7869,-2.7911,-2.7932,-2.7992,-2.8007,-2.8039,-2.8095,-2.8118,-2.8186,-2.8196,-2.8273,-2.8272,-2.8258,-2.8259,-2.83,-2.8296,-2.8432,-2.845,-2.8344,-2.8345,-2.8346,0,-2.7671,-2.7717,-2.7772,-2.7804,-2.7831,-2.7883,-2.7917,-2.7937,-2.7972,-2.8026,-2.8061,-2.8118,-2.8163,-2.8253,-2.8282,-2.8335,-2.8335,-2.8379,-2.8342,-2.8337,-2.8335,-2.8332,-2.8336,-2.8385,-2.8386,-2.8387,-2.8387,0,-2.7766,-2.7777,-2.7826,-2.788,-2.7921,-2.7964,-2.8006,-2.8033,-2.8059,-2.8098,-2.8156,-2.8192,-2.8263,-2.8318,-2.8372,-2.8398,-2.8397,-2.8399,-2.8411,-2.8408,-2.8398,-2.8404,-2.8276,-2.8395,-2.8395,-2.8394,-2.8394,-2.8393,-2.7831,-2.7872,-2.7918,-2.7973,-2.8007,-2.8046,-2.8088,-2.8115,-2.8164,-2.8223,-2.8232,-2.8294,-2.8337,-2.841,-2.8438,-2.8486,-2.8475,-2.8493,-2.8498,-2.8502,-2.8505,-2.8391,-2.8496,-2.8496,-2.8496,-2.8496,-2.8496,0,-2.7926,-2.7956,-2.8006,-2.8066,-2.8109,-2.8106,-2.8153,-2.8189,-2.8244,-2.8285,-2.833,-2.8397,-2.8451,-2.8486,-2.854,-2.8572,-2.8573,-2.8586,-2.8584,-2.8589,-2.8512,-2.8495,-2.8584,-2.8584,-2.8584,-2.8584,-2.8584,-2.8584,-2.7981,-2.805,-2.8067,-2.8153,-2.8182,-2.8244,-2.8271,-2.8307,-2.834,-2.8415,-2.846,-2.8483,-2.8521,-2.8578,-2.8628,-2.8637,-2.8656,-2.867,-2.8678,-2.8604,-2.8595,-2.8586,-2.8571,-2.8674,-2.8674,-2.8751,-2.8752,-2.8752]}]]